Lufkin, TX

1:17 AM CST on December 18, 2017 (GMT -0600)
Angelina County

Weather History for KLFK - February, 2014

Change the Weather History Date:

Tuesday, February 4, 2014

  Actual Average Record
Temperature  
Mean Temperature 41 °F 51 °F  
Max Temperature 46 °F 62 °F 85 °F (1957)
Min Temperature 36 °F 40 °F 16 °F (1912)
Degree Days  
Heating Degree Days 24 15  
Month to date heating degree days 56 60  
Since 1 July heating degree days 1489 1340  
Cooling Degree Days 0 0  
Month to date cooling degree days 1 0  
Year to date cooling degree days 1 8  
Moisture  
Dew Point 38 °F    
Average Humidity 87    
Maximum Humidity 92    
Minimum Humidity 82    
Precipitation  
Precipitation 0.38 in 0.14 in 2.32 in (1940)
Month to date precipitation 0.58 0.55  
Year to date precipitation 1.78 4.73  
Snow  
Snow 0.00 in - - ()
Month to date snowfall 0.0  
Since 1 July snowfall 3.2  
Snow Depth 0.00 in    
Sea Level Pressure  
Sea Level Pressure 29.97 in    
Wind  
Wind Speed 4 mph (NE)    
Max Wind Speed 13 mph    
Max Gust Speed 16 mph    
Visibility 4 miles    
Events Fog , Rain    
T = Trace of Precipitation, MM = Missing Value Source: NWS Daily Summary

Daily Weather History Graph

Daily Weather History Graph

Search for Another Location

Airport or City:

Trip Planner

Search our weather history database for the weather conditions in past years. The results will help you decide how hot, cold, wet, or windy it might be!

Date:

Astronomy

Feb. 04, 2014 Rise Set
Actual Time 7:09 AM CST 5:57 PM CST
Civil Twilight 6:44 AM CST 6:22 PM CST
Nautical Twilight 6:15 AM CST 6:51 PM CST
Astronomical Twilight 5:46 AM CST 7:19 PM CST
Moon 10:11 AM CST (2/4) 11:25 PM CST (2/4)
Length of Visible Light 11h 38m
Length of Day
10h 47m
Waxing Crescent, 29% of the Moon is Illuminated
Feb 4
Waxing Crescent
Feb 6
First Quarter
Feb 14
Full
Feb 22
Last Quarter
Mar 1
New

Hourly Weather History & Observations

Time (CST) Temp. Windchill Dew Point Humidity Pressure Visibility Wind Dir Wind Speed Gust Speed Precip Events Conditions
12:53 AM 42.1 °F 36.6 °F 37.9 °F 85% 30.01 in 10.0 mi ESE 9.2 mph - N/A   Overcast
1:53 AM 42.1 °F 38.4 °F 37.9 °F 85% 30.00 in 10.0 mi East 5.8 mph - N/A   Overcast
2:53 AM 42.1 °F 39.2 °F 37.9 °F 85% 29.99 in 10.0 mi ESE 4.6 mph - N/A   Overcast
3:53 AM 42.1 °F 39.2 °F 37.9 °F 85% 29.98 in 4.0 mi ESE 4.6 mph - 0.01 in Rain Light Rain
4:20 AM 42.8 °F 41.1 °F 39.2 °F 87% 29.97 in 2.5 mi ESE 3.5 mph - 0.00 in Rain Light Rain
4:27 AM 42.8 °F 40.1 °F 39.2 °F 87% 29.97 in 3.0 mi East 4.6 mph - 0.01 in Rain Light Rain
4:41 AM 42.8 °F 38.0 °F 39.2 °F 87% 29.96 in 2.5 mi East 8.1 mph - 0.02 in Rain Light Rain
4:53 AM 42.1 °F 36.6 °F 39.0 °F 89% 29.96 in 2.0 mi East 9.2 mph - 0.09 in Rain Heavy Rain
5:20 AM 42.8 °F 37.0 °F 39.2 °F 87% 29.96 in 3.0 mi East 10.4 mph - 0.08 in Rain Light Rain
5:53 AM 42.1 °F 37.1 °F 39.0 °F 89% 29.95 in 3.0 mi East 8.1 mph - 0.10 in Rain Light Rain
6:34 AM 41.0 °F 39.0 °F 37.4 °F 87% 29.96 in 2.5 mi NE 3.5 mph - 0.03 in Rain Light Rain
6:51 AM 41.0 °F 37.1 °F 37.4 °F 87% 29.95 in 4.0 mi ENE 5.8 mph - 0.04 in Rain Light Rain
6:53 AM 41.0 °F 36.4 °F 37.9 °F 89% 29.95 in 5.0 mi ENE 6.9 mph - 0.04 in Rain Light Rain
7:09 AM 41.0 °F 35.2 °F 37.4 °F 87% 29.94 in 2.0 mi ENE 9.2 mph - 0.04 in Rain Heavy Rain
7:22 AM 41.0 °F 33.9 °F 37.4 °F 87% 29.93 in 6.0 mi ENE 12.7 mph 16.1 mph 0.05 in Rain Light Rain
7:44 AM 41.0 °F 36.4 °F 37.4 °F 87% 29.93 in 2.5 mi ENE 6.9 mph - 0.06 in Rain Light Rain
7:51 AM 41.0 °F 34.7 °F 37.4 °F 87% 29.93 in 3.0 mi ENE 10.4 mph - 0.06 in Rain Light Rain
7:53 AM 41.0 °F 35.2 °F 37.9 °F 89% 29.93 in 2.5 mi ENE 9.2 mph - 0.06 in Rain Light Rain
8:10 AM 41.0 °F 34.7 °F 37.4 °F 87% 29.93 in 9.0 mi East 10.4 mph - 0.01 in   Overcast
8:53 AM 41.0 °F - 37.9 °F 89% 29.96 in 8.0 mi Calm Calm - 0.01 in Rain Light Rain
9:53 AM 42.1 °F 40.2 °F 37.9 °F 85% 29.96 in 4.0 mi North 3.5 mph - 0.01 in Rain Light Rain
10:00 AM 42.8 °F 41.1 °F 39.2 °F 87% 29.97 in 4.0 mi NNW 3.5 mph - 0.00 in Rain Light Rain
10:53 AM 42.1 °F 39.2 °F 37.9 °F 85% 29.96 in 3.0 mi NW 4.6 mph - 0.01 in Rain Light Rain
11:12 AM 42.8 °F 38.6 °F 39.2 °F 87% 29.96 in 5.0 mi NNW 6.9 mph - 0.00 in Rain Light Rain
11:46 AM 42.8 °F 38.0 °F 39.2 °F 87% 29.95 in 2.0 mi NW 8.1 mph - 0.00 in   Overcast
11:53 AM 42.1 °F 37.7 °F 39.0 °F 89% 29.95 in 2.0 mi NW 6.9 mph - 0.00 in   Overcast
12:00 PM 42.8 °F 38.6 °F 39.2 °F 87% 29.94 in 1.8 mi NNW 6.9 mph - N/A   Overcast
12:08 PM 42.8 °F 38.6 °F 39.2 °F 87% 29.94 in 2.0 mi NNW 6.9 mph - N/A   Overcast
12:38 PM 42.8 °F 37.5 °F 39.2 °F 87% 29.92 in 4.0 mi NNW 9.2 mph - 0.00 in Rain Light Rain
12:53 PM 41.0 °F 36.4 °F 37.9 °F 89% 29.92 in 5.0 mi NNW 6.9 mph - 0.00 in   Overcast
1:35 PM 42.8 °F 40.1 °F 37.4 °F 81% 29.91 in 2.5 mi NNE 4.6 mph - 0.02 in Rain Light Rain
1:53 PM 42.1 °F 40.2 °F 39.0 °F 89% 29.90 in 2.5 mi North 3.5 mph - 0.04 in Rain Light Rain
2:03 PM 42.8 °F - 39.2 °F 87% 29.90 in 4.0 mi Calm Calm - 0.00 in Rain Light Rain
2:13 PM 42.8 °F 41.1 °F 39.2 °F 87% 29.89 in 2.5 mi NNE 3.5 mph - 0.01 in Rain Light Rain
2:15 PM 42.8 °F 41.1 °F 37.4 °F 81% 29.89 in 3.0 mi NE 3.5 mph - 0.01 in Rain Light Rain
2:45 PM 42.8 °F 41.1 °F 39.2 °F 87% 29.89 in 10.0 mi East 3.5 mph - 0.01 in   Overcast
2:53 PM 43.0 °F 41.3 °F 39.9 °F 89% 29.89 in 10.0 mi ESE 3.5 mph - 0.01 in   Overcast
3:53 PM 44.1 °F - 39.9 °F 85% 29.88 in 10.0 mi Calm Calm - N/A   Overcast
4:21 PM 44.6 °F - 39.2 °F 81% 29.89 in 10.0 mi Calm Calm - N/A   Overcast
4:36 PM 46.4 °F - 41.0 °F 81% 29.90 in 10.0 mi Calm Calm - N/A   Overcast
4:53 PM 45.0 °F 43.5 °F 41.0 °F 86% 29.91 in 10.0 mi WNW 3.5 mph - N/A   Overcast
5:53 PM 45.0 °F 43.5 °F 42.1 °F 90% 29.94 in 10.0 mi WNW 3.5 mph - N/A   Overcast
6:53 PM 46.0 °F - 42.1 °F 86% 29.95 in 10.0 mi Calm Calm - N/A   Overcast
7:53 PM 46.0 °F - 42.1 °F 86% 30.00 in 10.0 mi Calm Calm - N/A   Overcast
8:31 PM 44.6 °F - 41.0 °F 87% 30.01 in 3.0 mi Calm Calm - N/A   Scattered Clouds
8:37 PM 44.6 °F - 41.0 °F 87% 30.01 in 1.8 mi Calm Calm - N/A   Partly Cloudy
8:50 PM 42.8 °F - 39.2 °F 87% 30.02 in 3.0 mi Calm Calm - N/A   Clear
8:53 PM 42.1 °F - 39.0 °F 89% 30.03 in 2.0 mi Calm Calm - N/A   Clear
8:58 PM 42.8 °F - 39.2 °F 87% 30.03 in 0.8 mi Calm Calm - N/A   Clear
9:10 PM 39.2 °F - 37.4 °F 93% 30.03 in 0.5 mi Calm Calm - N/A Fog Fog
9:53 PM 39.0 °F - 36.0 °F 89% 30.06 in 0.5 mi Calm Calm - N/A Fog Fog
10:05 PM 37.4 °F - 35.6 °F 93% 30.06 in 0.2 mi Calm Calm - N/A Fog Fog
10:15 PM 39.2 °F - 35.6 °F 87% 30.07 in 0.5 mi Calm Calm - N/A Fog Fog
10:45 PM 37.4 °F - 35.6 °F 93% 30.08 in 0.2 mi Calm Calm - N/A Fog Fog
10:53 PM 37.9 °F - 35.1 °F 89% 30.09 in 0.2 mi Calm Calm - N/A Fog Fog
11:10 PM 37.4 °F - 33.8 °F 87% 30.09 in 0.2 mi Calm Calm - N/A Fog Fog
11:18 PM 35.6 °F - 33.8 °F 93% 30.09 in 0.5 mi Calm Calm - N/A Fog Fog
11:31 PM 35.6 °F - 33.8 °F 93% 30.09 in 0.2 mi Calm Calm - N/A Fog Fog
11:49 PM 37.4 °F - 33.8 °F 87% 30.09 in 0.2 mi Calm Calm - N/A Fog Fog
11:53 PM 37.0 °F - 34.0 °F 89% 30.09 in 0.2 mi Calm Calm - N/A Fog Fog